Wind_Speed
19 17 16 16 17 19 21 24 26 28 32 35 38 41 45 48 52 55 59 63 66 68 70 70 68 67 67 67 68 70 73 75 76 74 70 67 64 63 63 63 64 65 66 68
22 21 20 19 20 21 23 26 28 30 32 36 38 42 45 48 52 56 59 63 67 69 71 72 70 68 68 68 68 69 72 74 75 73 70 66 63 62 62 62 63 64 65 66
25 25 25 22 22 23 24 27 30 32 34 38 40 42 46 48 52 56 59 63 67 70 72 73 72 69 68 68 68 69 71 73 74 73 70 66 63 61 61 61 61 62 63 65
29 28 28 25 26 27 27 29 31 33 36 39 42 43 47 49 52 56 59 63 66 69 72 74 73 71 69 68 67 68 70 72 73 72 69 66 62 60 60 60 60 60 61 62
33 33 31 28 29 30 31 30 33 35 37 40 43 45 46 49 52 55 58 62 65 69 71 73 74 72 70 68 67 67 68 70 72 72 69 65 62 60 58 59 59 59 60 60
37 37 35 31 32 34 36 35 35 37 39 41 45 48 49 51 52 55 58 62 65 68 71 73 74 73 70 68 67 66 67 69 71 71 69 65 62 59 58 57 58 58 59 59
40 41 39 35 36 38 39 39 40 41 42 44 46 49 51 52 53 55 57 61 64 67 69 72 74 73 70 68 66 66 66 68 69 70 68 65 62 59 57 56 56 57 56 56
43 43 40 38 39 40 42 42 42 44 45 46 47 49 51 52 53 54 56 60 63 65 68 70 72 73 71 68 66 65 65 66 68 69 68 65 61 58 56 54 54 53 53 53
46 43 40 39 41 43 45 45 45 46 47 47 48 49 51 52 53 53 55 58 62 64 66 69 70 73 71 68 66 64 64 64 66 68 68 66 61 58 55 53 52 51 51 51
46 42 39 40 42 44 47 48 48 49 49 49 50 50 51 52 52 52 53 57 60 63 65 67 69 71 71 69 66 64 62 63 64 66 68 66 62 58 54 51 50 49 49 49
47 41 38 39 42 45 47 49 50 51 51 51 52 51 52 52 52 52 52 55 59 61 63 65 67 69 70 69 65 63 61 61 62 64 66 66 64 59 55 52 49 49 48 48
46 40 40 40 39 41 45 49 51 52 51 52 52 52 51 52 51 51 51 54 57 60 61 63 65 67 69 68 65 62 60 60 60 62 64 64 63 60 55 52 50 48 48 47
50 46 45 43 40 41 45 48 50 52 52 52 52 52 51 52 51 51 51 53 56 58 60 61 63 64 67 67 65 62 59 58 58 60 62 63 61 58 55 52 50 48 46 45
56 55 54 50 48 46 46 47 50 52 52 52 53 53 52 52 52 51 51 53 55 57 58 59 61 62 64 66 65 61 58 56 56 57 59 61 60 58 54 50 48 47 45 43
63 63 63 60 57 54 51 51 52 53 53 53 54 54 54 54 53 52 53 54 55 57 57 57 59 60 62 64 64 60 57 55 54 55 57 59 59 58 54 50 47 45 44 42
70 71 70 68 65 61 59 57 57 56 56 56 56 55 56 56 56 55 55 55 56 56 56 56 57 57 59 61 62 60 56 53 52 53 54 57 58 57 55 51 46 44 42 40
74 74 74 73 71 68 65 63 61 59 59 59 58 58 59 59 58 57 57 57 57 56 56 54 54 55 56 59 61 59 55 52 51 50 52 54 56 57 55 51 46 42 41 39
71 72 72 72 72 71 69 66 64 63 61 61 61 61 60 61 60 59 60 58 56 56 54 52 52 52 53 56 58 58 54 51 49 48 50 52 54 55 55 51 47 42 40 39
67 70 71 71 70 70 69 67 66 65 63 63 63 62 61 61 61 61 61 58 55 55 53 50 50 50 51 53 56 56 53 49 47 46 47 49 52 53 54 52 47 42 39 37
64 66 68 69 69 68 68 67 67 66 65 64 63 62 62 61 61 62 61 58 55 55 51 48 48 48 48 51 54 54 51 48 46 45 45 47 49 51 52 51 48 42 38 36
61 64 66 68 68 68 68 67 67 66 65 64 62 61 60 61 61 61 61 57 55 54 49 47 46 45 46 48 51 52 49 46 44 43 43 44 47 49 51 50 48 43 38 35
61 64 66 68 69 69 68 68 67 65 63 61 60 59 59 59 60 60 60 57 55 53 48 45 44 43 43 46 49 49 47 44 43 41 40 42 44 47 49 49 47 43 38 34
64 65 67 68 68 68 67 66 65 64 62 59 58 56 56 57 58 59 59 57 55 51 46 43 42 40 41 43 46 47 45 42 41 40 39 39 41 44 47 48 47 43 38 33
68 68 68 68 68 67 66 64 62 61 60 58 55 53 53 53 55 56 56 56 54 49 44 41 39 38 39 41 43 44 43 40 39 38 37 37 38 42 44 46 46 43 38 33
70 70 69 68 67 66 63 61 59 57 56 55 53 51 50 51 53 54 54 54 51 47 42 40 37 36 37 39 41 42 40 38 37 36 35 35 36 39 42 44 44 42 38 33
71 70 68 66 64 62 60 59 56 54 53 53 52 50 50 51 52 53 53 51 48 43 39 37 35 34 35 37 38 39 38 36 35 34 34 33 33 36 39 42 43 42 38 33
68 66 64 62 60 58 58 56 54 52 53 53 52 51 52 52 52 52 51 49 45 40 37 35 33 32 33 35 36 37 36 34 33 33 32 31 31 33 37 40 42 41 38 33
Wind_Direction
258 267 278 290 303 314 322 328 334 339 342 346 348 350 352 353 353 352 352 353 354 353 353 351 349 348 347 348 348 349 350 350 351 351 352 352 354 355 356 358 360 1 3 4
259 266 274 284 296 307 315 321 327 332 336 340 344 346 348 350 351 351 351 352 353 353 353 352 350 348 348 348 348 349 350 351 352 352 353 353 354 356 358 359 1 2 4 6
261 268 273 282 290 299 308 315 321 326 330 335 339 342 344 347 348 350 350 350 351 352 352 352 351 349 348 349 349 350 351 352 352 353 354 354 355 356 358 0 2 3 5 7
265 268 273 282 286 293 301 310 315 321 325 329 334 338 340 344 346 348 349 349 349 350 351 351 351 349 348 349 349 350 351 352 353 354 354 355 355 356 358 1 3 4 6 7
268 271 275 279 284 289 296 304 310 315 320 324 328 333 336 340 342 345 347 347 348 349 350 350 351 349 348 349 350 350 351 353 354 354 355 355 355 356 358 1 3 5 7 9
269 272 276 280 283 287 292 298 303 309 315 320 324 327 332 336 339 342 344 346 346 347 348 349 350 349 348 349 349 350 351 353 354 354 355 356 356 357 358 0 3 5 7 9
267 271 276 282 284 287 290 295 300 305 310 315 319 323 327 331 335 338 341 343 344 345 347 348 349 349 348 348 349 350 351 353 354 354 355 356 357 357 358 0 2 5 6 8
265 269 275 278 281 283 287 291 296 300 305 310 314 318 322 326 330 334 338 341 342 343 345 346 347 349 348 348 349 350 351 352 354 354 355 357 357 358 359 0 2 4 5 8
266 269 273 276 278 282 285 289 293 296 301 305 309 313 317 321 326 330 334 338 340 341 343 344 346 348 348 347 348 349 350 352 353 354 355 357 358 358 359 0 2 3 5 7
268 271 274 275 277 279 282 286 290 293 297 301 305 309 313 317 321 326 330 334 337 339 341 343 344 346 347 347 347 348 350 351 352 353 355 356 358 358 359 0 2 3 5 7
270 274 275 273 275 278 281 284 287 290 294 298 301 305 309 313 317 322 326 331 334 336 338 340 342 344 346 347 346 347 349 350 351 352 354 355 357 358 359 360 1 3 5 6
273 275 275 273 274 276 278 280 283 287 290 294 297 301 305 308 312 317 322 326 330 333 335 338 340 342 345 346 346 346 348 349 351 352 353 354 356 357 359 360 1 2 4 5
272 273 272 271 271 272 273 276 280 283 286 289 292 296 300 304 308 313 318 322 327 330 332 335 338 340 343 345 345 345 347 348 350 351 352 354 356 357 358 359 0 1 3 5
270 271 270 269 267 265 268 272 275 278 281 284 288 291 295 299 303 308 314 318 323 326 329 333 335 337 340 344 344 344 345 347 349 350 352 353 355 357 358 358 359 360 2 3
271 271 271 269 267 267 267 267 269 273 277 280 283 287 291 294 299 304 309 314 318 323 326 329 332 335 338 342 343 343 344 346 348 349 350 352 354 355 357 358 359 360 1 2
272 272 272 272 271 270 268 268 269 271 273 276 280 284 287 291 295 300 304 309 314 319 322 326 329 332 335 339 342 342 342 344 346 348 349 351 352 354 356 358 358 359 0 1
274 274 273 273 273 272 271 270 269 271 272 274 276 279 283 287 291 295 300 305 310 314 318 322 325 329 332 336 340 341 341 342 344 346 348 349 351 353 355 357 357 358 359 1
275 275 275 275 275 273 272 271 271 270 270 271 272 274 278 282 286 291 295 300 305 309 313 318 321 326 329 333 337 339 339 340 342 344 346 348 349 351 354 356 356 357 358 0
276 276 275 275 274 274 272 271 270 269 268 268 269 271 273 277 281 286 290 295 300 304 309 314 317 322 326 330 335 337 337 338 340 342 344 346 347 350 352 354 355 356 357 359
279 278 278 277 276 275 273 271 269 267 267 266 267 268 270 273 276 280 284 289 295 298 304 310 313 318 323 327 332 335 335 336 338 340 342 344 346 348 350 353 355 355 356 358
285 282 280 278 277 276 275 273 270 267 266 265 265 266 267 269 272 276 280 284 288 293 299 304 308 314 319 324 329 333 333 333 335 338 340 342 344 346 348 351 353 354 355 357
287 285 283 281 280 278 275 273 271 268 266 264 264 263 263 265 268 271 275 278 283 288 294 299 303 309 315 320 326 330 331 331 332 335 338 340 342 344 346 349 352 353 354 355
288 286 284 282 281 279 277 273 270 267 264 262 261 261 261 261 263 267 270 273 277 283 289 293 298 305 311 317 323 327 328 328 330 333 335 338 340 342 344 347 350 352 353 353
287 285 283 282 281 279 275 272 269 266 262 260 257 256 256 257 259 262 265 268 273 278 283 287 293 300 307 313 320 324 325 325 326 330 332 335 338 340 342 345 348 350 351 352
285 283 281 279 277 275 273 269 266 263 259 254 252 250 249 251 253 256 260 264 269 273 277 282 288 296 302 310 317 320 322 322 323 326 329 332 335 338 340 343 346 348 350 351
282 280 278 275 273 270 268 265 261 256 253 249 246 244 244 245 248 251 255 259 264 268 272 278 284 291 298 306 313 317 318 319 320 323 326 329 331 335 338 340 344 346 348 349
278 275 272 269 267 265 262 260 256 251 248 245 241 240 240 241 243 247 251 255 259 264 268 273 279 287 295 303 310 313 314 315 317 320 323 325 328 332 335 338 341 345 347 347
Height
5860 5858 5856 5854 5852 5848 5844 5841 5837 5833 5827 5820 5813 5805 5797 5788 5778 5767 5756 5744 5731 5718 5704 5689 5674 5660 5645 5630 5614 5598 5581 5564 5546 5528 5511 5495 5480 5464 5449 5433 5417 5401 5384 5366
5855 5853 5851 5849 5847 5843 5839 5835 5832 5827 5822 5816 5809 5800 5792 5784 5774 5764 5752 5740 5727 5714 5700 5685 5670 5656 5641 5626 5611 5595 5578 5561 5543 5526 5509 5494 5479 5464 5449 5434 5418 5402 5386 5370
5849 5847 5845 5844 5842 5838 5835 5831 5827 5822 5817 5811 5804 5796 5788 5779 5770 5759 5748 5736 5723 5710 5696 5682 5667 5652 5638 5623 5608 5592 5576 5559 5542 5525 5509 5493 5478 5464 5450 5435 5420 5405 5389 5373
5841 5840 5838 5841 5836 5833 5830 5826 5821 5816 5811 5805 5799 5791 5782 5774 5765 5754 5744 5732 5719 5707 5693 5679 5664 5649 5635 5620 5605 5590 5574 5558 5541 5524 5508 5493 5478 5465 5451 5437 5422 5408 5393 5377
5833 5831 5831 5832 5829 5825 5823 5821 5815 5810 5805 5799 5792 5786 5779 5769 5760 5750 5739 5728 5715 5703 5690 5676 5661 5646 5632 5617 5603 5588 5572 5557 5540 5524 5508 5493 5479 5466 5452 5438 5425 5411 5396 5382
5823 5822 5822 5827 5822 5817 5815 5813 5809 5804 5798 5793 5786 5779 5773 5763 5754 5744 5734 5723 5711 5699 5686 5673 5659 5644 5629 5615 5601 5586 5571 5556 5540 5524 5509 5494 5480 5466 5453 5439 5426 5412 5399 5386
5814 5811 5813 5817 5813 5808 5807 5804 5800 5794 5790 5785 5779 5772 5765 5756 5748 5739 5729 5718 5707 5695 5683 5670 5656 5642 5627 5613 5599 5585 5570 5555 5540 5525 5509 5495 5481 5468 5454 5440 5427 5414 5402 5390
5805 5803 5807 5806 5803 5799 5796 5794 5790 5785 5781 5777 5771 5764 5757 5749 5741 5733 5723 5713 5703 5691 5680 5667 5654 5640 5625 5611 5597 5584 5570 5556 5541 5526 5511 5497 5482 5469 5456 5443 5431 5419 5408 5396
5795 5798 5797 5795 5792 5788 5785 5783 5780 5776 5773 5768 5763 5756 5750 5742 5734 5726 5718 5708 5698 5687 5676 5664 5651 5637 5623 5609 5595 5582 5569 5556 5542 5527 5513 5499 5485 5471 5459 5446 5435 5424 5412 5401
5784 5788 5787 5784 5781 5777 5774 5771 5769 5765 5763 5758 5753 5748 5742 5735 5727 5719 5711 5702 5693 5683 5672 5660 5648 5635 5621 5607 5593 5581 5568 5555 5542 5528 5514 5500 5486 5473 5461 5450 5439 5427 5416 5405
5773 5777 5775 5774 5770 5766 5763 5760 5756 5754 5751 5747 5743 5738 5733 5726 5719 5712 5704 5696 5688 5678 5667 5656 5644 5632 5619 5605 5592 5579 5566 5554 5541 5527 5514 5500 5487 5475 5463 5451 5440 5429 5418 5408
5761 5764 5760 5761 5759 5755 5752 5748 5745 5743 5740 5736 5731 5727 5723 5717 5710 5704 5697 5689 5681 5672 5663 5652 5641 5629 5616 5603 5590 5577 5565 5553 5540 5527 5513 5500 5486 5474 5463 5452 5441 5430 5420 5409
5748 5747 5745 5746 5745 5741 5738 5736 5734 5731 5728 5724 5720 5716 5712 5707 5701 5695 5689 5682 5675 5666 5657 5647 5637 5625 5613 5601 5588 5576 5564 5552 5540 5527 5514 5500 5487 5474 5463 5452 5442 5432 5422 5413
5733 5730 5727 5729 5727 5726 5724 5724 5721 5718 5716 5712 5708 5705 5701 5696 5691 5686 5680 5674 5667 5660 5651 5642 5632 5622 5610 5598 5586 5574 5562 5551 5539 5528 5515 5503 5490 5478 5466 5455 5445 5435 5425 5416
5715 5711 5707 5708 5710 5711 5711 5709 5706 5705 5703 5700 5696 5693 5690 5686 5681 5676 5671 5665 5659 5652 5645 5636 5627 5617 5606 5595 5583 5571 5560 5550 5539 5528 5516 5504 5492 5480 5468 5458 5448 5438 5428 5418
5692 5689 5687 5688 5691 5693 5694 5694 5693 5692 5691 5688 5685 5682 5678 5674 5671 5666 5661 5656 5651 5644 5638 5630 5621 5612 5602 5591 5580 5569 5558 5548 5538 5527 5516 5505 5493 5481 5470 5459 5450 5441 5431 5422
5665 5666 5667 5667 5670 5672 5675 5677 5677 5677 5676 5674 5672 5669 5665 5662 5659 5655 5650 5646 5642 5636 5630 5623 5615 5607 5597 5587 5577 5566 5555 5546 5536 5526 5516 5505 5493 5482 5470 5460 5451 5442 5434 5425
5643 5644 5645 5646 5648 5650 5654 5657 5658 5658 5658 5658 5655 5653 5651 5649 5646 5643 5638 5635 5632 5626 5621 5616 5608 5600 5592 5583 5573 5562 5552 5543 5534 5524 5514 5504 5493 5482 5471 5461 5451 5443 5435 5427
5623 5623 5624 5623 5624 5625 5630 5634 5635 5636 5637 5636 5636 5636 5636 5634 5633 5630 5626 5623 5621 5616 5612 5607 5600 5593 5586 5577 5568 5558 5548 5540 5531 5522 5513 5503 5493 5482 5471 5461 5452 5444 5436 5428
5605 5604 5603 5602 5603 5604 5606 5609 5610 5611 5614 5615 5616 5618 5618 5618 5617 5614 5612 5611 5610 5605 5602 5598 5592 5586 5579 5571 5562 5553 5544 5536 5528 5519 5511 5502 5492 5482 5471 5461 5452 5444 5436 5429
5585 5583 5581 5580 5580 5581 5583 5586 5587 5589 5591 5593 5596 5598 5600 5600 5599 5599 5598 5598 5596 5592 5591 5588 5583 5577 5571 5564 5556 5548 5539 5531 5524 5516 5508 5499 5490 5480 5471 5461 5452 5443 5436 5429
5565 5562 5560 5559 5558 5559 5560 5561 5564 5567 5570 5572 5575 5578 5580 5582 5582 5583 5583 5583 5581 5580 5580 5577 5573 5568 5563 5557 5550 5542 5534 5526 5519 5512 5504 5497 5488 5479 5469 5460 5451 5443 5436 5429
5545 5542 5539 5537 5536 5537 5537 5537 5540 5544 5548 5551 5554 5558 5560 5563 5564 5566 5567 5568 5567 5567 5568 5565 5562 5559 5554 5548 5542 5535 5528 5521 5514 5508 5501 5493 5486 5477 5468 5459 5450 5442 5435 5429
5524 5520 5517 5515 5513 5513 5514 5515 5517 5521 5525 5530 5534 5537 5540 5544 5546 5548 5550 5551 5552 5553 5554 5553 5551 5548 5544 5539 5534 5528 5521 5515 5509 5503 5496 5490 5482 5474 5466 5457 5449 5441 5434 5428
5500 5497 5494 5493 5491 5491 5492 5493 5496 5499 5503 5508 5513 5516 5520 5524 5528 5531 5533 5535 5537 5540 5541 5540 5539 5537 5534 5530 5526 5520 5514 5508 5503 5497 5491 5485 5479 5472 5464 5455 5447 5439 5432 5426
5475 5472 5471 5470 5470 5470 5471 5473 5476 5479 5483 5488 5493 5497 5501 5505 5509 5513 5517 5520 5523 5526 5527 5527 5527 5526 5523 5520 5517 5512 5507 5501 5496 5491 5486 5480 5475 5468 5461 5453 5445 5438 5431 5425
5450 5448 5447 5447 5449 5449 5451 5453 5456 5460 5465 5470 5475 5479 5483 5487 5492 5497 5501 5505 5509 5512 5514 5514 5515 5514 5513 5510 5507 5503 5499 5494 5490 5485 5480 5475 5470 5464 5457 5450 5443 5436 5429 5423